Location: ??????
(55.2000°N, 38.3000°E)
Time: 01:48:29
(UTC+00:00)

CZ-2C R/B - Pass Details

Date: 15 November 2025
Orbit: 664 x 773 km, 98.4° (Epoch: 12 December)

Event Time Altitude Azimuth Distance (km) Brightness Sun altitude
Rises 01:33:48 0° 17° (NNE) 3,208 6.0 -29.0°
Reaches altitude 10° 01:36:07 10° 20° (NNE) 2,293 5.3 -28.6°
Maximum altitude 01:41:09 67° 103° (ESE) 835 2.7 -27.9°
Enters shadow 01:42:23 49° 162° (SSE) 985 3.0 -27.7°
